Location: Unspecified
(0.0000°N, 0.0000°E)
Time: 19:29:03
(UTC+00:00)

deb Briz - Pass Details

Date: 18 February 2026
Orbit: 1683 x 2323 km, 64.7° (Epoch: 11 March)

Event Time Altitude Azimuth Distance (km) Brightness Sun altitude
Rises 18:56:39 0° 210° (SSW) 5,605 ? -10.5°
Reaches altitude 10° 19:00:01 10° 213° (SSW) 4,671 ? -11.3°
Maximum altitude 19:12:20 63° 291° (WNW) 2,491 ? -14.3°
Drops below altitude 10° 19:25:21 10° 10° (N) 4,896 ? -17.5°
Sets 19:29:01 0° 13° (NNE) 5,884 ? -18.4°
